GW2935 Weather Reports


time (UTC)temp
C
wind
direction
speed
KPH
gust
KPH
rain 1hr
cm
rain 24hr
cm
rain mn
cm
humidity
%
barometer
mb
20260506130047 25 0 0.0 3.2 0.00 0.00 0.00 93 1009.9
20260506124547 24 70 0.0 3.2 0.00 0.00 0.00 93 1009.8
20260506123048 24 0 0.0 6.4 0.00 0.00 0.00 93 1009.7
20260506121550 24 258 1.6 6.4 0.00 0.00 0.00 94 1009.4
20260506120047 24 52 0.0 8.0 0.00 0.00 0.00 94 1009.3
20260506114548 24 103 0.0 3.2 0.00 0.00 0.00 94 1009.2
20260506113048 23 0 0.0 4.8 0.00 0.00 0.00 94 1009.0
20260506111549 23 25 0.0 12.9 0.00 0.00 0.00 94 1008.8
20260506110101 23 0 0.0 3.2 0.00 0.00 0.00 94 1008.6
20260506104549 23 0 0.0 6.4 0.00 0.00 0.00 94 1008.6
20260506103047 23 0 0.0 4.8 0.00 0.00 0.00 94 1008.6
20260506101556 23 0 0.0 9.7 0.00 0.00 0.00 94 1008.6
20260506100045 23 11 1.6 4.8 0.00 0.00 0.00 94 1008.6
20260506094543 23 0 0.0 4.8 0.00 0.00 0.00 93 1008.3
20260506093044 24 155 0.0 4.8 0.00 0.00 0.00 93 1008.3
20260506091543 24 0 0.0 9.7 0.00 0.00 0.00 92 1008.3
20260506090059 24 58 0.0 8.0 0.00 0.00 0.00 92 1008.5
20260506084557 24 167 1.6 6.4 0.00 0.00 0.00 91 1008.5
20260506083042 25 236 0.0 8.0 0.00 0.00 0.00 91 1008.7
20260506081547 25 165 1.6 6.4 0.00 0.00 0.00 91 1008.8
20260506073046 25 204 1.6 6.4 0.00 0.00 0.00 91 1009.0
20260506071552 25 298 0.0 4.8 0.00 0.00 0.00 90 1009.1
20260506061549 25 123 0.0 9.7 0.00 0.00 0.00 91 1009.5
20260506050109 25 359 0.0 3.2 0.00 0.00 0.00 91 1009.5
20260506044547 25 220 0.0 4.8 0.00 0.00 0.00 91 1009.5
20260506043046 25 0 0.0 12.9 0.00 0.00 0.00 90 1009.4
20260506041557 25 32 1.6 9.7 0.00 0.00 0.00 90 1009.4
20260506040048 25 101 0.0 8.0 0.00 0.00 0.00 89 1009.5
20260506034551 25 0 0.0 8.0 0.00 0.00 0.00 88 1009.2
20260506033048 25 98 3.2 11.3 0.00 0.00 0.00 88 1009.0
20260506031544 25 346 1.6 11.3 0.00 0.00 0.00 88 1008.9
20260506030047 25 243 0.0 9.7 0.00 0.00 0.00 87 1008.8
20260506024548 25 80 1.6 9.7 0.00 0.00 0.00 86 1008.7
20260506023049 25 0 0.0 8.0 0.00 0.00 0.00 85 1008.5
20260506021552 25 204 3.2 11.3 0.00 0.00 0.00 85 1008.2
20260506020051 26 65 1.6 8.0 0.00 0.00 0.00 85 1008.1
20260506014547 26 79 1.6 11.3 0.00 0.00 0.00 85 1007.9
20260506013053 26 139 1.6 6.4 0.00 0.00 0.00 84 1007.7
20260506011549 26 55 1.6 8.0 0.00 0.00 0.00 83 1007.4
20260506010048 26 354 3.2 8.0 0.00 0.00 0.00 81 1007.3
20260506004543 26 300 1.6 9.7 0.00 0.00 0.00 80 1007.3
20260506003051 26 0 1.6 8.0 0.00 0.00 0.00 80 1007.0
20260506001553 26 240 1.6 8.0 0.00 0.00 0.00 80 1006.9
20260506000057 27 134 3.2 12.9 0.00 0.00 0.00 79 1007.0
20260505234546 27 260 4.8 12.9 0.00 0.00 0.00 78 1006.9
20260505233051 27 40 1.6 9.7 0.00 0.00 0.00 79 1006.9
20260505231549 27 286 1.6 14.5 0.00 0.00 0.00 78 1006.9
20260505230112 27 127 1.6 14.5 0.00 0.00 0.00 79 1007.0
20260505224544 27 98 3.2 11.3 0.00 0.00 0.00 78 1006.8
20260505223048 28 155 1.6 14.5 0.00 0.00 0.00 77 1006.9
20260505221556 28 17 3.2 11.3 0.00 0.00 0.00 76 1006.9
20260505220056 28 23 1.6 12.9 0.00 0.00 0.00 75 1007.1
20260505214549 28 63 3.2 11.3 0.00 0.00 0.00 74 1007.3
20260505213045 28 53 3.2 11.3 0.00 0.00 0.00 76 1007.5
20260505211559 28 123 3.2 12.9 0.00 0.00 0.00 75 1007.5
20260505210045 28 59 1.6 11.3 0.00 0.00 0.00 77 1007.7
20260505204547 28 67 3.2 14.5 0.00 0.00 0.00 76 1008.0
20260505203045 29 267 1.6 8.0 0.00 0.00 0.00 74 1008.2
20260505201552 29 151 3.2 12.9 0.00 0.00 0.00 73 1008.5
20260505200106 28 259 1.6 11.3 0.00 0.00 0.00 75 1008.5
20260505194549 28 293 3.2 12.9 0.00 0.00 0.00 74 1008.7
20260505193100 28 46 1.6 8.0 0.00 0.00 0.00 77 1008.9
20260505191557 27 356 3.2 14.5 0.00 0.00 0.00 78 1009.0
20260505190052 28 301 1.6 9.7 0.00 0.00 0.00 77 1009.0
20260505184559 27 172 1.6 8.0 0.00 0.00 0.00 80 1009.1
20260505183045 27 83 1.6 11.3 0.00 0.00 0.00 80 1009.2
20260505181555 26 266 1.6 11.3 0.00 0.00 0.00 82 1009.2
20260505180051 26 43 0.0 9.7 0.00 0.00 0.00 83 1009.3
20260505174549 26 353 0.0 6.4 0.00 0.00 0.00 82 1009.4
20260505173046 26 0 1.6 9.7 0.00 0.00 0.00 82 1009.6
20260505171546 26 12 1.6 8.0 0.00 0.00 0.00 82 1009.6
20260505170043 26 298 1.6 9.7 0.00 0.00 0.00 84 1009.8
20260505164549 26 223 1.6 11.3 0.00 0.00 0.00 83 1009.8
20260505163045 26 37 1.6 8.0 0.00 0.00 0.00 82 1009.7
20260505161546 26 98 3.2 9.7 0.00 0.00 0.00 82 1009.6
20260505153052 25 0 0.0 6.4 0.00 0.00 0.00 84 1009.4
20260505151552 25 248 1.6 8.0 0.00 0.00 0.00 84 1009.4